"Pseudo-MPEC" for P10OD4Z

Created 2019 Jun 15 19:08:01 UT using Find_Orb

Click here for an explanation of pseudo-MPECs

 
 Astrometry: 
     P10OD4Z  C2019 05 12cncLcTtA+SRT:o#,m3Fn^Du.'v*ED0.JMbEoY%TYX`hsUkYH$Yp=F51
     P10OD4Z  C2019 05 12#FK*vUO@@7jGTipgoJFM04?Z3h8l8Uo^ZTZ6]0OEW)4Np]Rp1=_eF51
     P10OD4Z  C2019 05 12\?y$Astrometry1E=g;!Go\7,6G[[%J-h-9_rVx8mqkq(64oQjq.F51
     P10OD4Z  C2019 06 01-0BRiaVvOc5h6FfN97?0@Uyiai:;IIe3Eq,MR5kA$'gD/Z\NE]DEF51
     P10OD4Z  C2019 06 01Dg``6cbUva'RmT*]yKaZm_iMAqLwUpCS7]mMFV]BqdNerXr]=,*vF51
     P10OD4Z  C2019 06 012xm^u/rVF/INUY1QQu%pG7LsuiYkVkiIP?_k\_!_30sD$sAtA3F:F51
     P10OD4Z  C2019 06 02bitAZPg$=wZVB;wU)bNM$RGyB26to1*a).;_u0'k%Y!.AO6E\]DbF51
     P10OD4Z  C2019 06 02Y1io+8Z!Bv^*78igHK2(*36%=L$ycav3*Fswt?V3JnKm5N!V5F'RF51
     P10OD4Z  C2019 06 02M_+jbFgO+gH(mwGJ0Kr5?ac7bs:Qtu]![hkw52L@redacted;yOGF51
     P10OD4Z  C2019 06 02LIK6OwKclickH^i_y,6Oi7d2];GogAIpCpBFAXur^CVM]0i6Ze`KF51
     P10OD4Z KC2019 06 04Or.jsX2:'(7w%]r73jO0mdF*[IAQS9:C2r/yl=PKgFlxFnEdn)Et291
     P10OD4Z KC2019 06 04Sf,Y@)k8mqk_hAdiC0ir.ig.-57S0DsjPS0ZxMJmf84P[1VlTOTw291
     P10OD4Z KC2019 06 04pb*+T7ox1_OdIcbKj2rV%```hereqpR%y-VIoaUIx$cQMAnjm^Ve291
     P10OD4Z  C2019 06 11n[.Bw$tW$[3MQNfor\T';0jYaUbGmgamoBDNpURRiY]qkx1ijcaDF51
     P10OD4Z  C2019 06 11sIF@g3(gZQc$%ZZ12#Eot;:MLpZW:SZ`sGMUi-a,f@f,RWQ!Ql$XF51
     P10OD4Z  C2019 06 11t48+(EeCsgpN0Xix0]x5UGk`explanation9-?1?mE2y'WdJP+uYF51

Station data:
(291) LPL/Spacewatch II  (N31.961669 W111.599905)  US/Arizona.  Observers J.
   V. Scotti, R. S. McMillan. 1.8-m f/2.7 reflector + CCD.
(F51) Pan-STARRS 1, Haleakala  (N20.707235 W156.255910)  US/Hawaii.
   Observers N. Primak, A. Schultz, S. Watters, J. Thiel, T. Goggia. Measurer
   PS1 Science Consortium. 1.8-m Ritchey-Chrétien + CCD.

Orbital elements:  P10OD4Z
   Perihelion 2020 Jun 13.309073 +/- 0.161 TT =  7:25:03 (JD 2459013.809073)
Epoch 2019 Jun 11.0 TT = JDT 2458645.5   Earth MOID: 0.7585   AutoNEOCP
M 221.14380766 +/- 0.07             (J2000 ecliptic)
n   0.37700996 +/- 5.13e-5          Peri.  299.63885 +/- 0.051
a   1.89772884 +/- 0.000172         Node   100.17174 +/- 0.006
e   0.1162145 +/- 0.000121          Incl.   24.59409 +/- 0.007
P   2.61/954.86d           H 20.0   G  0.15   U  6.1  
q 1.67718515 +/- 9.68e-5    Q 2.11827253 +/- 0.000416
From 16 observations 2019 May 12-June 11; mean residual 0".16
Residuals in arcseconds: 
190512 F51  .05+  .05-    190602 F51  .14-  .16-    190604 291  .34+  .02+    
190512 F51  .06+  .07-    190602 F51  .06+  .04+    190611 F51  .11-  .17-    
190512 F51  .08-  .12+    190602 F51  .08-  .17-    190611 F51  .03+  .13+    
190601 F51  .04-  .13-    190602 F51  .13-  .15+    190611 F51  .01+  .13-    
190601 F51  .19-  .41-    190604 291  .24+  .36+    
190601 F51  .14-  .02-    190604 291  .06-  .30+    

Ephemerides (geocentric):
Date (UTC) HH   RA              Dec         delta   r     elong  mag " sig PA
---- -- -- --  -------------   -----------  ------ ------ -----  --- ---- ---
2019 06 15 19  16 42 14.593   -02 19 46.40  1.1020 2.0697 155.5 22.5 .376 144
2019 06 15 20  16 42 11.146   -02 20 19.45  1.1021 2.0696 155.5 22.5 .379 144
2019 06 15 21  16 42 07.699   -02 20 52.52  1.1021 2.0696 155.5 22.5 .381 144
2019 06 15 22  16 42 04.255   -02 21 25.62  1.1022 2.0696 155.4 22.5 .384 144
2019 06 15 23  16 42 00.812   -02 21 58.74  1.1022 2.0695 155.4 22.5 .386 144
2019 06 16 00  16 41 57.370   -02 22 31.89  1.1023 2.0695 155.4 22.5 .388 144
2019 06 16 01  16 41 53.930   -02 23 05.07  1.1023 2.0695 155.4 22.5 .391 144
2019 06 16 02  16 41 50.491   -02 23 38.27  1.1024 2.0694 155.3 22.5 .393 144
2019 06 16 03  16 41 47.053   -02 24 11.49  1.1024 2.0694 155.3 22.5 .396 143
2019 06 16 04  16 41 43.617   -02 24 44.74  1.1025 2.0693 155.3 22.5 .398 143
2019 06 16 05  16 41 40.183   -02 25 18.02  1.1025 2.0693 155.3 22.5 .401 143
2019 06 16 06  16 41 36.750   -02 25 51.32  1.1026 2.0693 155.3 22.5 .403 143
2019 06 16 07  16 41 33.318   -02 26 24.65  1.1026 2.0692 155.2 22.5 .406 143
2019 06 16 08  16 41 29.888   -02 26 58.00  1.1027 2.0692 155.2 22.5 .408 143
2019 06 16 09  16 41 26.460   -02 27 31.38  1.1027 2.0692 155.2 22.5 .411 143
2019 06 16 10  16 41 23.033   -02 28 04.78  1.1028 2.0691 155.2 22.5 .413 143
2019 06 16 11  16 41 19.607   -02 28 38.21  1.1029 2.0691 155.1 22.5 .416 143
2019 06 16 12  16 41 16.183   -02 29 11.66  1.1029 2.0691 155.1 22.5 .418 142
2019 06 16 13  16 41 12.761   -02 29 45.14  1.1030 2.0690 155.1 22.5 .421 142
2019 06 16 14  16 41 09.340   -02 30 18.65  1.1030 2.0690 155.1 22.5 .423 142
2019 06 16 15  16 41 05.920   -02 30 52.18  1.1031 2.0690 155.0 22.5 .426 142
2019 06 16 16  16 41 02.503   -02 31 25.73  1.1031 2.0689 155.0 22.5 .428 142
2019 06 16 17  16 40 59.086   -02 31 59.31  1.1032 2.0689 155.0 22.5 .431 142
2019 06 16 18  16 40 55.672   -02 32 32.91  1.1033 2.0689 155.0 22.5 .434 142
2019 06 16 19  16 40 52.258   -02 33 06.54  1.1033 2.0688 154.9 22.5 .436 142
2019 06 16 20  16 40 48.847   -02 33 40.19  1.1034 2.0688 154.9 22.5 .439 142
2019 06 16 21  16 40 45.437   -02 34 13.87  1.1034 2.0688 154.9 22.5 .441 142
2019 06 16 22  16 40 42.028   -02 34 47.58  1.1035 2.0687 154.9 22.5 .444 141
2019 06 16 23  16 40 38.621   -02 35 21.30  1.1036 2.0687 154.8 22.5 .447 141
2019 06 17 00  16 40 35.216   -02 35 55.05  1.1036 2.0686 154.8 22.5 .449 141
2019 06 17 01  16 40 31.813   -02 36 28.83  1.1037 2.0686 154.8 22.5 .452 141
2019 06 17 02  16 40 28.411   -02 37 02.63  1.1038 2.0686 154.8 22.5 .454 141
2019 06 17 03  16 40 25.010   -02 37 36.46  1.1038 2.0685 154.7 22.5 .457 141
2019 06 17 04  16 40 21.611   -02 38 10.31  1.1039 2.0685 154.7 22.5 .460 141
2019 06 17 05  16 40 18.214   -02 38 44.18  1.1040 2.0685 154.7 22.5 .462 141
2019 06 17 06  16 40 14.819   -02 39 18.08  1.1040 2.0684 154.7 22.5 .465 141
2019 06 17 07  16 40 11.425   -02 39 52.01  1.1041 2.0684 154.6 22.5 .468 141
2019 06 17 08  16 40 08.033   -02 40 25.95  1.1041 2.0684 154.6 22.5 .470 140
2019 06 17 09  16 40 04.642   -02 40 59.93  1.1042 2.0683 154.6 22.5 .473 140
2019 06 17 10  16 40 01.253   -02 41 33.92  1.1043 2.0683 154.6 22.5 .476 140
2019 06 17 11  16 39 57.866   -02 42 07.94  1.1043 2.0683 154.5 22.5 .478 140
2019 06 17 12  16 39 54.480   -02 42 41.99  1.1044 2.0682 154.5 22.5 .481 140
2019 06 17 13  16 39 51.097   -02 43 16.06  1.1045 2.0682 154.5 22.5 .484 140
2019 06 17 14  16 39 47.714   -02 43 50.15  1.1046 2.0682 154.5 22.5 .486 140
2019 06 17 15  16 39 44.334   -02 44 24.27  1.1046 2.0681 154.4 22.5 .489 140
2019 06 17 16  16 39 40.955   -02 44 58.41  1.1047 2.0681 154.4 22.5 .492 140
2019 06 17 17  16 39 37.578   -02 45 32.57  1.1048 2.0681 154.4 22.5 .495 140
2019 06 17 18  16 39 34.203   -02 46 06.76  1.1048 2.0680 154.4 22.5 .497 140